Tabellarische Ansicht des 15.1.2012


Die einzelnen Werte des Tages

Uhrzeit Temperatur Luftdruck Luftfeuchte Wind Hi-Wind Taupunkt THW Index Wind Chill Heat Index Solar- strahlung Regen

00:00

1.8 C

1023.5 hpa

88 %

1.6 km/h aus 97

4.8 km/h aus NW

0.0 C

1.7 C

1.8 C

1.7 C

0 W/m

0.00 mm

00:05

1.7 C

1023.5 hpa

89 %

1.6 km/h aus 98

3.2 km/h aus NW

0.0 C

1.6 C

1.7 C

1.6 C

0 W/m

0.00 mm

00:10

1.6 C

1023.5 hpa

88 %

1.6 km/h aus 95

4.8 km/h aus WNW

-0.2 C

1.6 C

1.6 C

1.6 C

0 W/m

0.00 mm

00:15

1.6 C

1023.5 hpa

88 %

1.6 km/h aus 100

4.8 km/h aus WNW

-0.2 C

1.4 C

1.6 C

1.4 C

0 W/m

0.00 mm

00:20

1.5 C

1023.5 hpa

89 %

1.6 km/h aus 99

3.2 km/h aus NW

-0.1 C

1.4 C

1.5 C

1.4 C

0 W/m

0.00 mm

00:25

1.4 C

1023.5 hpa

89 %

3.2 km/h aus 91

8.0 km/h aus WNW

-0.2 C

0.9 C

1.0 C

1.3 C

0 W/m

0.00 mm

00:30

1.3 C

1023.5 hpa

89 %

3.2 km/h aus 82

6.4 km/h aus WNW

-0.3 C

0.8 C

0.9 C

1.2 C

0 W/m

0.00 mm

00:35

1.3 C

1023.5 hpa

89 %

1.6 km/h aus 93

6.4 km/h aus WNW

-0.3 C

1.2 C

1.3 C

1.2 C

0 W/m

0.00 mm

00:40

1.3 C

1023.5 hpa

89 %

0.0 km/h aus 95

4.8 km/h aus WNW

-0.3 C

1.2 C

1.3 C

1.2 C

0 W/m

0.00 mm

00:45

1.3 C

1023.5 hpa

89 %

0.0 km/h aus 91

3.2 km/h aus WNW

-0.3 C

1.2 C

1.3 C

1.2 C

0 W/m

0.00 mm

00:50

1.3 C

1023.5 hpa

89 %

0.0 km/h aus 92

3.2 km/h aus WNW

-0.3 C

1.2 C

1.3 C

1.2 C

0 W/m

0.00 mm

00:55

1.3 C

1023.5 hpa

89 %

1.6 km/h aus 86

4.8 km/h aus WNW

-0.3 C

1.2 C

1.3 C

1.2 C

0 W/m

0.00 mm

01:00

1.2 C

1023.5 hpa

89 %

1.6 km/h aus 76

3.2 km/h aus WNW

-0.4 C

1.1 C

1.2 C

1.1 C

0 W/m

0.00 mm

01:05

1.1 C

1023.5 hpa

89 %

0.0 km/h aus 66

3.2 km/h aus WNW

-0.5 C

1.0 C

1.1 C

1.0 C

0 W/m

0.00 mm

01:10

1.0 C

1023.5 hpa

89 %

0.0 km/h aus 64

1.6 km/h aus WNW

-0.6 C

0.9 C

1.0 C

0.9 C

0 W/m

0.00 mm

01:15

0.8 C

1023.5 hpa

89 %

0.0 km/h aus 59

1.6 km/h aus WNW

-0.8 C

0.7 C

0.8 C

0.7 C

0 W/m

0.00 mm

01:20

0.8 C

1023.5 hpa

89 %

0.0 km/h aus 62

1.6 km/h aus WNW

-0.8 C

0.7 C

0.8 C

0.7 C

0 W/m

0.00 mm

01:25

0.6 C

1023.5 hpa

89 %

0.0 km/h aus 49

1.6 km/h aus WNW

-1.0 C

0.5 C

0.6 C

0.5 C

0 W/m

0.00 mm

01:30

0.5 C

1023.5 hpa

89 %

0.0 km/h aus 54

3.2 km/h aus WNW

-1.1 C

0.4 C

0.5 C

0.4 C

0 W/m

0.00 mm

01:35

0.3 C

1023.5 hpa

89 %

0.0 km/h aus 54

3.2 km/h aus WNW

-1.3 C

0.2 C

0.3 C

0.2 C

0 W/m

0.00 mm

01:40

0.2 C

1023.5 hpa

89 %

0.0 km/h aus 51

1.6 km/h aus WNW

-1.4 C

0.1 C

0.2 C

0.1 C

0 W/m

0.00 mm

01:45

0.0 C

1023.5 hpa

88 %

0.0 km/h aus 50

1.6 km/h aus WNW

-1.8 C

-0.1 C

0.0 C

-0.1 C

0 W/m

0.00 mm

01:50

-0.1 C

1023.5 hpa

88 %

0.0 km/h aus 41

1.6 km/h aus WNW

-1.9 C

-0.2 C

-0.1 C

-0.2 C

0 W/m

0.00 mm

01:55

-0.3 C

1023.5 hpa

88 %

0.0 km/h aus 33

1.6 km/h aus WNW

-2.0 C

-0.4 C

-0.3 C

-0.4 C

0 W/m

0.00 mm

02:00

-0.4 C

1023.5 hpa

88 %

1.6 km/h aus 32

3.2 km/h aus WNW

-2.1 C

-0.5 C

-0.4 C

-0.5 C

0 W/m

0.00 mm

02:05

-0.4 C

1023.5 hpa

88 %

0.0 km/h aus 28

1.6 km/h aus WNW

-2.2 C

-0.6 C

-0.4 C

-0.6 C

0 W/m

0.00 mm

02:10

-0.6 C

1023.5 hpa

88 %

0.0 km/h aus 33

1.6 km/h aus WNW

-2.3 C

-0.7 C

-0.6 C

-0.7 C

0 W/m

0.00 mm

02:15

-0.7 C

1023.5 hpa

88 %

0.0 km/h aus 39

3.2 km/h aus WNW

-2.4 C

-0.8 C

-0.7 C

-0.8 C

0 W/m

0.00 mm

02:20

-0.7 C

1023.5 hpa

88 %

0.0 km/h aus 39

1.6 km/h aus WNW

-2.5 C

-0.8 C

-0.7 C

-0.8 C

0 W/m

0.00 mm

02:25

-0.8 C

1023.5 hpa

88 %

0.0 km/h aus 26

1.6 km/h aus WNW

-2.6 C

-0.9 C

-0.8 C

-0.9 C

0 W/m

0.00 mm

02:30

-0.9 C

1023.6 hpa

88 %

0.0 km/h aus 32

0.0 km/h aus ---

-2.7 C

-1.1 C

-0.9 C

-1.1 C

0 W/m

0.00 mm

02:35

-1.1 C

1023.6 hpa

88 %

0.0 km/h aus 48

0.0 km/h aus ---

-2.8 C

-1.2 C

-1.1 C

-1.2 C

0 W/m

0.00 mm

02:40

-1.1 C

1023.6 hpa

88 %

0.0 km/h aus 55

0.0 km/h aus ---

-2.8 C

-1.2 C

-1.1 C

-1.2 C

0 W/m

0.00 mm

02:45

-1.2 C

1023.6 hpa

88 %

0.0 km/h aus 85

0.0 km/h aus ---

-3.0 C

-1.3 C

-1.2 C

-1.3 C

0 W/m

0.00 mm

02:50

-1.3 C

1023.6 hpa

88 %

0.0 km/h aus 111

0.0 km/h aus ---

-3.0 C

-1.4 C

-1.3 C

-1.4 C

0 W/m

0.00 mm

02:55

-1.3 C

1023.6 hpa

88 %

0.0 km/h aus 114

1.6 km/h aus WNW

-3.1 C

-1.4 C

-1.3 C

-1.4 C

0 W/m

0.00 mm

03:00

-1.4 C

1023.5 hpa

88 %

0.0 km/h aus 118

0.0 km/h aus ---

-3.2 C

-1.6 C

-1.4 C

-1.6 C

0 W/m

0.00 mm

03:05

-1.4 C

1023.5 hpa

89 %

0.0 km/h aus 116

3.2 km/h aus WNW

-3.0 C

-1.6 C

-1.4 C

-1.6 C

0 W/m

0.00 mm

03:10

-1.5 C

1023.5 hpa

89 %

0.0 km/h aus 116

0.0 km/h aus ---

-3.1 C

-1.6 C

-1.5 C

-1.6 C

0 W/m

0.00 mm

03:15

-1.6 C

1023.5 hpa

88 %

0.0 km/h aus 116

0.0 km/h aus ---

-3.3 C

-1.7 C

-1.6 C

-1.7 C

0 W/m

0.00 mm

03:20

-1.6 C

1023.5 hpa

88 %

0.0 km/h aus 116

0.0 km/h aus ---

-3.3 C

-1.7 C

-1.6 C

-1.7 C

0 W/m

0.00 mm

03:25

-1.6 C

1023.5 hpa

88 %

0.0 km/h aus 115

0.0 km/h aus ---

-3.3 C

-1.7 C

-1.6 C

-1.7 C

0 W/m

0.00 mm

03:30

-1.7 C

1023.5 hpa

89 %

0.0 km/h aus 116

0.0 km/h aus ---

-3.2 C

-1.8 C

-1.7 C

-1.8 C

0 W/m

0.00 mm

03:35

-1.7 C

1023.5 hpa

89 %

0.0 km/h aus 117

0.0 km/h aus ---

-3.2 C

-1.8 C

-1.7 C

-1.8 C

0 W/m

0.00 mm

03:40

-1.7 C

1023.5 hpa

89 %

0.0 km/h aus 117

0.0 km/h aus ---

-3.3 C

-1.8 C

-1.7 C

-1.8 C

0 W/m

0.00 mm

03:45

-1.8 C

1023.5 hpa

89 %

0.0 km/h aus 116

0.0 km/h aus ---

-3.4 C

-1.9 C

-1.8 C

-1.9 C

0 W/m

0.00 mm

03:50

-1.8 C

1023.5 hpa

89 %

0.0 km/h aus 116

0.0 km/h aus ---

-3.4 C

-1.9 C

-1.8 C

-1.9 C

0 W/m

0.00 mm

03:55

-1.8 C

1023.5 hpa

89 %

0.0 km/h aus 117

0.0 km/h aus ---

-3.4 C

-1.9 C

-1.8 C

-1.9 C

0 W/m

0.00 mm

04:00

-1.8 C

1023.5 hpa

89 %

0.0 km/h aus 115

0.0 km/h aus ---

-3.4 C

-1.9 C

-1.8 C

-1.9 C

0 W/m

0.00 mm

04:05

-1.8 C

1023.5 hpa

89 %

0.0 km/h aus 118

0.0 km/h aus ---

-3.4 C

-1.9 C

-1.8 C

-1.9 C

0 W/m

0.00 mm

04:10

-1.8 C

1023.5 hpa

89 %

0.0 km/h aus 117

0.0 km/h aus ---

-3.4 C

-1.9 C

-1.8 C

-1.9 C

0 W/m

0.00 mm

04:15

-1.8 C

1023.6 hpa

89 %

0.0 km/h aus 116

0.0 km/h aus ---

-3.4 C

-1.9 C

-1.8 C

-1.9 C

0 W/m

0.00 mm

04:20

-1.7 C

1023.6 hpa

89 %

1.6 km/h aus 116

3.2 km/h aus WNW

-3.3 C

-1.8 C

-1.7 C

-1.8 C

0 W/m

0.00 mm

04:25

-1.7 C

1023.6 hpa

89 %

0.0 km/h aus 116

3.2 km/h aus WNW

-3.2 C

-1.8 C

-1.7 C

-1.8 C

0 W/m

0.00 mm

04:30

-1.7 C

1023.5 hpa

89 %

0.0 km/h aus 116

0.0 km/h aus ---

-3.2 C

-1.8 C

-1.7 C

-1.8 C

0 W/m

0.00 mm

04:35

-1.6 C

1023.5 hpa

89 %

0.0 km/h aus 117

1.6 km/h aus WNW

-3.2 C

-1.7 C

-1.6 C

-1.7 C

0 W/m

0.00 mm

04:40

-1.6 C

1023.5 hpa

89 %

0.0 km/h aus 117

1.6 km/h aus WNW

-3.1 C

-1.7 C

-1.6 C

-1.7 C

0 W/m

0.00 mm

04:45

-1.6 C

1023.5 hpa

89 %

0.0 km/h aus 117

1.6 km/h aus WNW

-3.1 C

-1.7 C

-1.6 C

-1.7 C

0 W/m

0.00 mm

04:50

-1.5 C

1023.5 hpa

90 %

0.0 km/h aus 117

0.0 km/h aus ---

-2.9 C

-1.6 C

-1.5 C

-1.6 C

0 W/m

0.00 mm

04:55

-1.4 C

1023.5 hpa

90 %

0.0 km/h aus 117

0.0 km/h aus ---

-2.9 C

-1.6 C

-1.4 C

-1.6 C

0 W/m

0.00 mm

05:00

-1.4 C

1023.6 hpa

90 %

0.0 km/h aus 116

0.0 km/h aus ---

-2.8 C

-1.5 C

-1.4 C

-1.5 C

0 W/m

0.00 mm

05:05

-1.3 C

1023.6 hpa

90 %

0.0 km/h aus 116

0.0 km/h aus ---

-2.7 C

-1.4 C

-1.3 C

-1.4 C

0 W/m

0.00 mm

05:10

-1.2 C

1023.6 hpa

90 %

0.0 km/h aus 118

0.0 km/h aus ---

-2.7 C

-1.3 C

-1.2 C

-1.3 C

0 W/m

0.00 mm

05:15

-1.1 C

1023.7 hpa

90 %

0.0 km/h aus 116

1.6 km/h aus WNW

-2.5 C

-1.2 C

-1.1 C

-1.2 C

0 W/m

0.00 mm

05:20

-1.0 C

1023.7 hpa

90 %

0.0 km/h aus 117

1.6 km/h aus WNW

-2.4 C

-1.1 C

-1.0 C

-1.1 C

0 W/m

0.00 mm

05:25

-0.9 C

1023.7 hpa

90 %

1.6 km/h aus 116

4.8 km/h aus WNW

-2.4 C

-1.1 C

-0.9 C

-1.1 C

0 W/m

0.00 mm

05:30

-0.8 C

1023.7 hpa

91 %

1.6 km/h aus 114

4.8 km/h aus WNW

-2.1 C

-0.9 C

-0.8 C

-0.9 C

0 W/m

0.00 mm

05:35

-0.6 C

1023.7 hpa

91 %

0.0 km/h aus 115

4.8 km/h aus WNW

-1.9 C

-0.7 C

-0.6 C

-0.7 C

0 W/m

0.00 mm

05:40

-0.5 C

1023.7 hpa

91 %

1.6 km/h aus 116

4.8 km/h aus WNW

-1.8 C

-0.6 C

-0.5 C

-0.6 C

0 W/m

0.00 mm

05:45

-0.4 C

1023.8 hpa

91 %

0.0 km/h aus 115

1.6 km/h aus WNW

-1.7 C

-0.5 C

-0.4 C

-0.5 C

0 W/m

0.00 mm

05:50

-0.3 C

1023.8 hpa

91 %

0.0 km/h aus 116

1.6 km/h aus WNW

-1.6 C

-0.3 C

-0.3 C

-0.3 C

0 W/m

0.00 mm

05:55

-0.2 C

1023.8 hpa

91 %

0.0 km/h aus 115

1.6 km/h aus WNW

-1.5 C

-0.3 C

-0.2 C

-0.3 C

0 W/m

0.00 mm

06:00

-0.2 C

1024.0 hpa

91 %

0.0 km/h aus 115

1.6 km/h aus WNW

-1.5 C

-0.2 C

-0.2 C

-0.2 C

0 W/m

0.00 mm

06:05

-0.1 C

1024.0 hpa

91 %

0.0 km/h aus 116

1.6 km/h aus WNW

-1.3 C

-0.1 C

-0.1 C

-0.1 C

0 W/m

0.00 mm

06:10

-0.1 C

1024.0 hpa

91 %

0.0 km/h aus 115

0.0 km/h aus ---

-1.3 C

-0.1 C

-0.1 C

-0.1 C

0 W/m

0.00 mm

06:15

0.0 C

1024.0 hpa

91 %

0.0 km/h aus 118

1.6 km/h aus WNW

-1.3 C

-0.1 C

0.0 C

-0.1 C

0 W/m

0.00 mm

06:20

0.0 C

1024.0 hpa

91 %

0.0 km/h aus 115

0.0 km/h aus ---

-1.3 C

-0.1 C

0.0 C

-0.1 C

0 W/m

0.00 mm

06:25

0.0 C

1024.0 hpa

91 %

0.0 km/h aus 115

0.0 km/h aus ---

-1.3 C

-0.1 C

0.0 C

-0.1 C

0 W/m

0.00 mm

06:30

0.0 C

1024.0 hpa

91 %

0.0 km/h aus 116

0.0 km/h aus ---

-1.3 C

-0.1 C

0.0 C

-0.1 C

0 W/m

0.00 mm

06:35

0.0 C

1024.0 hpa

91 %

0.0 km/h aus 116

0.0 km/h aus ---

-1.3 C

-0.1 C

0.0 C

-0.1 C

0 W/m

0.00 mm

06:40

0.0 C

1024.0 hpa

91 %

0.0 km/h aus 117

1.6 km/h aus WNW

-1.3 C

-0.1 C

0.0 C

-0.1 C

0 W/m

0.00 mm

06:45

0.0 C

1024.0 hpa

91 %

0.0 km/h aus 114

0.0 km/h aus ---

-1.3 C

-0.1 C

0.0 C

-0.1 C

0 W/m

0.00 mm

06:50

0.0 C

1024.0 hpa

91 %

0.0 km/h aus 116

1.6 km/h aus WNW

-1.3 C

-0.1 C

0.0 C

-0.1 C

0 W/m

0.00 mm

06:55

0.0 C

1024.0 hpa

91 %

0.0 km/h aus 117

0.0 km/h aus ---

-1.3 C

-0.1 C

0.0 C

-0.1 C

0 W/m

0.00 mm

07:00

0.0 C

1024.1 hpa

91 %

0.0 km/h aus 117

1.6 km/h aus WNW

-1.3 C

-0.1 C

0.0 C

-0.1 C

0 W/m

0.00 mm

07:05

-0.1 C

1024.1 hpa

91 %

0.0 km/h aus 117

0.0 km/h aus ---

-1.3 C

-0.1 C

-0.1 C

-0.1 C

0 W/m

0.00 mm

07:10

-0.1 C

1024.1 hpa

91 %

1.6 km/h aus 114

4.8 km/h aus WNW

-1.3 C

-0.1 C

-0.1 C

-0.1 C

0 W/m

0.00 mm

07:15

-0.1 C

1024.0 hpa

91 %

0.0 km/h aus 115

3.2 km/h aus WNW

-1.3 C

-0.1 C

-0.1 C

-0.1 C

0 W/m

0.00 mm

07:20

-0.1 C

1024.0 hpa

91 %

0.0 km/h aus 118

3.2 km/h aus WNW

-1.3 C

-0.1 C

-0.1 C

-0.1 C

0 W/m

0.00 mm

07:25

-0.1 C

1024.0 hpa

91 %

0.0 km/h aus 116

4.8 km/h aus WNW

-1.4 C

-0.2 C

-0.1 C

-0.2 C

0 W/m

0.00 mm

07:30

-0.1 C

1024.1 hpa

91 %

3.2 km/h aus 116

8.0 km/h aus WSW

-1.4 C

-0.8 C

-0.7 C

-0.2 C

0 W/m

0.00 mm

07:35

-0.2 C

1024.1 hpa

91 %

1.6 km/h aus 117

4.8 km/h aus WSW

-1.5 C

-0.2 C

-0.2 C

-0.2 C

0 W/m

0.00 mm

07:40

-0.2 C

1024.1 hpa

92 %

0.0 km/h aus 117

3.2 km/h aus WSW

-1.4 C

-0.3 C

-0.2 C

-0.3 C

0 W/m

0.00 mm

07:45

-0.2 C

1024.4 hpa

91 %

1.6 km/h aus 115

4.8 km/h aus WSW

-1.5 C

-0.3 C

-0.2 C

-0.3 C

0 W/m

0.00 mm

07:50

-0.2 C

1024.4 hpa

91 %

1.6 km/h aus 117

4.8 km/h aus WSW

-1.5 C

-0.3 C

-0.2 C

-0.3 C

0 W/m

0.00 mm

07:55

-0.2 C

1024.4 hpa

91 %

1.6 km/h aus 117

4.8 km/h aus WSW

-1.5 C

-0.3 C

-0.2 C

-0.3 C

0 W/m

0.00 mm

08:00

-0.3 C

1024.5 hpa

92 %

3.2 km/h aus 117

6.4 km/h aus WSW

-1.4 C

-0.9 C

-0.9 C

-0.3 C

0 W/m

0.00 mm

08:05

-0.3 C

1024.5 hpa

92 %

0.0 km/h aus 117

3.2 km/h aus WSW

-1.4 C

-0.3 C

-0.3 C

-0.3 C

0 W/m

0.00 mm

08:10

-0.3 C

1024.5 hpa

92 %

0.0 km/h aus 115

0.0 km/h aus ---

-1.4 C

-0.3 C

-0.3 C

-0.3 C

0 W/m

0.00 mm

08:15

-0.3 C

1024.5 hpa

92 %

1.6 km/h aus 117

4.8 km/h aus WSW

-1.4 C

-0.3 C

-0.3 C

-0.3 C

0 W/m

0.00 mm

08:20

-0.3 C

1024.5 hpa

92 %

0.0 km/h aus 116

3.2 km/h aus WSW

-1.4 C

-0.3 C

-0.3 C

-0.3 C

0 W/m

0.00 mm

08:25

-0.3 C

1024.5 hpa

92 %

1.6 km/h aus 116

4.8 km/h aus WSW

-1.4 C

-0.3 C

-0.3 C

-0.3 C

0 W/m

0.00 mm

08:30

-0.3 C

1024.6 hpa

92 %

1.6 km/h aus 115

3.2 km/h aus WSW

-1.4 C

-0.3 C

-0.3 C

-0.3 C

0 W/m

0.00 mm

08:35

-0.3 C

1024.6 hpa

92 %

1.6 km/h aus 117

4.8 km/h aus WSW

-1.4 C

-0.3 C

-0.3 C

-0.3 C

0 W/m

0.00 mm

08:40

-0.3 C

1024.6 hpa

92 %

1.6 km/h aus 116

4.8 km/h aus WSW

-1.5 C

-0.4 C

-0.3 C

-0.4 C

0 W/m

0.00 mm

08:45

-0.3 C

1024.6 hpa

92 %

1.6 km/h aus 114

4.8 km/h aus WSW

-1.5 C

-0.4 C

-0.3 C

-0.4 C

0 W/m

0.00 mm

08:50

-0.3 C

1024.6 hpa

92 %

0.0 km/h aus 116

3.2 km/h aus WSW

-1.5 C

-0.4 C

-0.3 C

-0.4 C

0 W/m

0.00 mm

08:55

-0.3 C

1024.6 hpa

92 %

0.0 km/h aus 116

3.2 km/h aus WSW

-1.5 C

-0.4 C

-0.3 C

-0.4 C

0 W/m

0.00 mm

09:00

-0.3 C

1024.8 hpa

92 %

1.6 km/h aus 116

4.8 km/h aus WSW

-1.5 C

-0.4 C

-0.3 C

-0.4 C

0 W/m

0.00 mm

09:05

-0.3 C

1024.8 hpa

92 %

1.6 km/h aus 115

4.8 km/h aus WSW

-1.5 C

-0.4 C

-0.3 C

-0.4 C

0 W/m

0.00 mm

09:10

-0.3 C

1024.8 hpa

92 %

0.0 km/h aus 115

0.0 km/h aus ---

-1.5 C

-0.4 C

-0.3 C

-0.4 C

0 W/m

0.00 mm

09:15

-0.3 C

1024.8 hpa

92 %

0.0 km/h aus 116

3.2 km/h aus WSW

-1.5 C

-0.4 C

-0.3 C

-0.4 C

0 W/m

0.00 mm

09:20

-0.3 C

1024.8 hpa

92 %

0.0 km/h aus 116

3.2 km/h aus WSW

-1.5 C

-0.4 C

-0.3 C

-0.4 C

0 W/m

0.00 mm

09:25

-0.4 C

1024.8 hpa

92 %

1.6 km/h aus 117

6.4 km/h aus WSW

-1.5 C

-0.4 C

-0.4 C

-0.4 C

0 W/m

0.00 mm

09:30

-0.3 C

1025.0 hpa

92 %

0.0 km/h aus 118

6.4 km/h aus WSW

-1.5 C

-0.4 C

-0.3 C

-0.4 C

0 W/m

0.00 mm

09:35

-0.3 C

1025.0 hpa

92 %

0.0 km/h aus 117

3.2 km/h aus WSW

-1.5 C

-0.4 C

-0.3 C

-0.4 C

0 W/m

0.00 mm

09:40

-0.3 C

1025.0 hpa

92 %

1.6 km/h aus 117

4.8 km/h aus WSW

-1.5 C

-0.4 C

-0.3 C

-0.4 C

0 W/m

0.00 mm

09:45

-0.4 C

1025.0 hpa

92 %

1.6 km/h aus 112

6.4 km/h aus WSW

-1.5 C

-0.4 C

-0.4 C

-0.4 C

0 W/m

0.00 mm

09:50

-0.4 C

1025.0 hpa

92 %

1.6 km/h aus 116

4.8 km/h aus WSW

-1.5 C

-0.4 C

-0.4 C

-0.4 C

0 W/m

0.00 mm

09:55

-0.4 C

1025.0 hpa

92 %

1.6 km/h aus 117

4.8 km/h aus WSW

-1.5 C

-0.4 C

-0.4 C

-0.4 C

0 W/m

0.00 mm

10:00

-0.4 C

1024.9 hpa

92 %

1.6 km/h aus 114

6.4 km/h aus WSW

-1.5 C

-0.4 C

-0.4 C

-0.4 C

0 W/m

0.00 mm

10:05

-0.3 C

1024.9 hpa

92 %

1.6 km/h aus 117

4.8 km/h aus WSW

-1.5 C

-0.4 C

-0.3 C

-0.4 C

0 W/m

0.00 mm

10:10

-0.3 C

1024.9 hpa

92 %

3.2 km/h aus 116

6.4 km/h aus WSW

-1.5 C

-1.0 C

-0.9 C

-0.4 C

0 W/m

0.00 mm

10:15

-0.3 C

1025.0 hpa

92 %

1.6 km/h aus 113

4.8 km/h aus WSW

-1.5 C

-0.4 C

-0.3 C

-0.4 C

0 W/m

0.00 mm

10:20

-0.4 C

1025.0 hpa

92 %

0.0 km/h aus 116

1.6 km/h aus WSW

-1.5 C

-0.4 C

-0.4 C

-0.4 C

0 W/m

0.00 mm

10:25

-0.4 C

1025.0 hpa

92 %

0.0 km/h aus 113

1.6 km/h aus WSW

-1.5 C

-0.4 C

-0.4 C

-0.4 C

0 W/m

0.00 mm

10:30

-0.3 C

1025.1 hpa

93 %

0.0 km/h aus 114

3.2 km/h aus WSW

-1.3 C

-0.4 C

-0.3 C

-0.4 C

0 W/m

0.00 mm

10:35

-0.3 C

1025.1 hpa

93 %

1.6 km/h aus 116

3.2 km/h aus WSW

-1.3 C

-0.4 C

-0.3 C

-0.4 C

0 W/m

0.00 mm

10:40

-0.3 C

1025.1 hpa

93 %

1.6 km/h aus 106

4.8 km/h aus WSW

-1.3 C

-0.4 C

-0.3 C

-0.4 C

0 W/m

0.00 mm

10:45

-0.3 C

1025.1 hpa

93 %

0.0 km/h aus 115

1.6 km/h aus WSW

-1.3 C

-0.4 C

-0.3 C

-0.4 C

0 W/m

0.00 mm

10:50

-0.3 C

1025.1 hpa

93 %

1.6 km/h aus 115

4.8 km/h aus WSW

-1.3 C

-0.4 C

-0.3 C

-0.4 C

0 W/m

0.00 mm

10:55

-0.3 C

1025.1 hpa

93 %

0.0 km/h aus 115

3.2 km/h aus WSW

-1.3 C

-0.4 C

-0.3 C

-0.4 C

0 W/m

0.00 mm

11:00

-0.3 C

1025.1 hpa

93 %

1.6 km/h aus 117

4.8 km/h aus WSW

-1.3 C

-0.3 C

-0.3 C

-0.3 C

0 W/m

0.00 mm

11:05

-0.2 C

1025.1 hpa

93 %

1.6 km/h aus 116

4.8 km/h aus WSW

-1.2 C

-0.3 C

-0.2 C

-0.3 C

0 W/m

0.00 mm

11:10

-0.2 C

1025.1 hpa

93 %

1.6 km/h aus 114

3.2 km/h aus WSW

-1.2 C

-0.2 C

-0.2 C

-0.2 C

0 W/m

0.00 mm

11:15

-0.2 C

1025.1 hpa

93 %

1.6 km/h aus 106

4.8 km/h aus WSW

-1.2 C

-0.2 C

-0.2 C

-0.2 C

0 W/m

0.00 mm

11:20

-0.2 C

1025.1 hpa

93 %

0.0 km/h aus 112

3.2 km/h aus WSW

-1.2 C

-0.2 C

-0.2 C

-0.2 C

0 W/m

0.00 mm

11:25

-0.1 C

1025.1 hpa

93 %

0.0 km/h aus 111

3.2 km/h aus WSW

-1.1 C

-0.2 C

-0.1 C

-0.2 C

0 W/m

0.00 mm

11:30

-0.1 C

1025.0 hpa

93 %

0.0 km/h aus 112

3.2 km/h aus WSW

-1.1 C

-0.1 C

-0.1 C

-0.1 C

0 W/m

0.00 mm

11:35

-0.1 C

1025.0 hpa

93 %

0.0 km/h aus 112

0.0 km/h aus ---

-1.1 C

-0.1 C

-0.1 C

-0.1 C

0 W/m

0.00 mm

11:40

0.0 C

1025.0 hpa

93 %

0.0 km/h aus 109

6.4 km/h aus WSW

-1.0 C

-0.1 C

0.0 C

-0.1 C

0 W/m

0.00 mm

11:45

0.1 C

1024.9 hpa

93 %

0.0 km/h aus 107

4.8 km/h aus WSW

-0.9 C

0.0 C

0.1 C

0.0 C

0 W/m

0.00 mm

11:50

0.1 C

1024.9 hpa

93 %

1.6 km/h aus 110

4.8 km/h aus WSW

-0.9 C

0.1 C

0.1 C

0.1 C

0 W/m

0.00 mm

11:55

0.2 C

1024.9 hpa

93 %

1.6 km/h aus 109

4.8 km/h aus WSW

-0.8 C

0.2 C

0.2 C

0.2 C

0 W/m

0.00 mm

12:00

0.3 C

1025.0 hpa

93 %

1.6 km/h aus 82

4.8 km/h aus WSW

-0.7 C

0.2 C

0.3 C

0.2 C

0 W/m

0.00 mm

12:05

0.3 C

1025.0 hpa

93 %

0.0 km/h aus 44

0.0 km/h aus ---

-0.7 C

0.3 C

0.3 C

0.3 C

0 W/m

0.00 mm

12:10

0.3 C

1025.0 hpa

93 %

0.0 km/h aus 24

3.2 km/h aus WSW

-0.7 C

0.3 C

0.3 C

0.3 C

0 W/m

0.00 mm

12:15

0.3 C

1024.7 hpa

93 %

0.0 km/h aus 42

3.2 km/h aus WSW

-0.7 C

0.3 C

0.3 C

0.3 C

0 W/m

0.00 mm

12:20

0.3 C

1024.7 hpa

93 %

0.0 km/h aus 74

1.6 km/h aus WSW

-0.7 C

0.2 C

0.3 C

0.2 C

0 W/m

0.00 mm

12:25

0.3 C

1024.7 hpa

93 %

1.6 km/h aus 41

6.4 km/h aus WSW

-0.7 C

0.2 C

0.3 C

0.2 C

0 W/m

0.00 mm

12:30

0.3 C

1024.7 hpa

93 %

1.6 km/h aus 18

4.8 km/h aus WSW

-0.7 C

0.2 C

0.3 C

0.2 C

0 W/m

0.00 mm

12:35

0.2 C

1024.7 hpa

93 %

0.0 km/h aus 34

3.2 km/h aus WSW

-0.8 C

0.2 C

0.2 C

0.2 C

0 W/m

0.00 mm

12:40

0.2 C

1024.7 hpa

93 %

0.0 km/h aus 19

0.0 km/h aus ---

-0.8 C

0.2 C

0.2 C

0.2 C

0 W/m

0.00 mm

12:45

0.3 C

1024.7 hpa

93 %

0.0 km/h aus 3

0.0 km/h aus ---

-0.7 C

0.2 C

0.3 C

0.2 C

0 W/m

0.00 mm

12:50

0.0 C

1024.7 hpa

93 %

0.0 km/h aus 0

0.0 km/h aus ---

0.0 C

0.0 C

0.0 C

0.0 C

0 W/m

0.00 mm

12:55

0.0 C

1024.7 hpa

0 %

0.0 km/h aus 0

0.0 km/h aus ---

0.0 C

0.0 C

0.0 C

0.0 C

0 W/m

0.00 mm

13:00

0.0 C

1024.6 hpa

0 %

0.0 km/h aus 0

0.0 km/h aus ---

0.0 C

0.0 C

0.0 C

0.0 C

0 W/m

0.00 mm

13:05

0.0 C

1024.6 hpa

0 %

0.0 km/h aus 0

0.0 km/h aus ---

0.0 C

0.0 C

0.0 C

0.0 C

0 W/m

0.00 mm

13:10

0.0 C

1024.6 hpa

0 %

0.0 km/h aus 0

0.0 km/h aus ---

0.0 C

0.0 C

0.0 C

0.0 C

0 W/m

0.00 mm

13:15

0.0 C

1024.6 hpa

0 %

0.0 km/h aus 0

0.0 km/h aus ---

0.0 C

0.0 C

0.0 C

0.0 C

0 W/m

0.00 mm

13:20

0.0 C

1024.6 hpa

0 %

0.0 km/h aus 0

0.0 km/h aus ---

0.0 C

0.0 C

0.0 C

0.0 C

0 W/m

0.00 mm

13:25

0.0 C

1024.6 hpa

0 %

0.0 km/h aus 0

0.0 km/h aus ---

0.0 C

0.0 C

0.0 C

0.0 C

0 W/m

0.00 mm

13:30

0.0 C

1024.5 hpa

0 %

0.0 km/h aus 0

0.0 km/h aus ---

0.0 C

0.0 C

0.0 C

0.0 C

0 W/m

0.00 mm

13:35

0.0 C

1024.5 hpa

0 %

0.0 km/h aus 0

0.0 km/h aus ---

0.0 C

0.0 C

0.0 C

0.0 C

0 W/m

0.00 mm

13:40

0.0 C

1024.5 hpa

0 %

0.0 km/h aus 0

0.0 km/h aus ---

0.0 C

0.0 C

0.0 C

0.0 C

0 W/m

0.00 mm

13:45

0.0 C

1024.5 hpa

0 %

0.0 km/h aus 0

0.0 km/h aus ---

0.0 C

0.0 C

0.0 C

0.0 C

0 W/m

0.00 mm

13:50

0.0 C

1024.5 hpa

0 %

0.0 km/h aus 0

0.0 km/h aus ---

0.0 C

0.0 C

0.0 C

0.0 C

0 W/m

0.00 mm

13:55

0.0 C

1024.5 hpa

0 %

0.0 km/h aus 0

0.0 km/h aus ---

0.0 C

0.0 C

0.0 C

0.0 C

0 W/m

0.00 mm

14:00

0.3 C

1024.3 hpa

93 %

0.0 km/h aus 65

3.2 km/h aus WSW

-0.7 C

0.2 C

0.3 C

0.2 C

0 W/m

0.00 mm

14:05

0.4 C

1024.3 hpa

93 %

0.0 km/h aus 117

3.2 km/h aus WSW

-0.6 C

0.3 C

0.4 C

0.3 C

0 W/m

0.00 mm

14:10

0.6 C

1024.3 hpa

93 %

0.0 km/h aus 116

1.6 km/h aus WSW

-0.4 C

0.5 C

0.6 C

0.5 C

0 W/m

0.00 mm

14:15

0.4 C

1024.3 hpa

93 %

0.0 km/h aus 116

1.6 km/h aus WSW

-0.6 C

0.4 C

0.4 C

0.4 C

0 W/m

0.00 mm

14:20

0.4 C

1024.3 hpa

93 %

1.6 km/h aus 116

4.8 km/h aus WSW

-0.6 C

0.4 C

0.4 C

0.4 C

0 W/m

0.00 mm

14:25

0.2 C

1024.3 hpa

92 %

0.0 km/h aus 115

4.8 km/h aus WSW

-0.9 C

0.2 C

0.2 C

0.2 C

0 W/m

0.00 mm

14:30

0.0 C

1024.3 hpa

93 %

0.0 km/h aus 117

1.6 km/h aus WSW

-1.0 C

-0.1 C

0.0 C

-0.1 C

0 W/m

0.00 mm

14:35

0.0 C

1024.3 hpa

93 %

0.0 km/h aus 117

1.6 km/h aus WSW

-1.0 C

-0.1 C

0.0 C

-0.1 C

0 W/m

0.00 mm

14:40

0.1 C

1024.3 hpa

93 %

0.0 km/h aus 117

0.0 km/h aus ---

-0.9 C

0.0 C

0.1 C

0.0 C

0 W/m

0.00 mm

14:45

0.1 C

1024.3 hpa

93 %

0.0 km/h aus 117

3.2 km/h aus WSW

-0.9 C

0.1 C

0.1 C

0.1 C

0 W/m

0.00 mm

14:50

0.2 C

1024.3 hpa

93 %

0.0 km/h aus 118

3.2 km/h aus WSW

-0.8 C

0.2 C

0.2 C

0.2 C

0 W/m

0.00 mm

14:55

0.2 C

1024.3 hpa

93 %

1.6 km/h aus 117

3.2 km/h aus WSW

-0.8 C

0.2 C

0.2 C

0.2 C

0 W/m

0.00 mm

15:00

0.1 C

1024.1 hpa

93 %

0.0 km/h aus 117

3.2 km/h aus WSW

-0.9 C

0.1 C

0.1 C

0.1 C

0 W/m

0.00 mm

15:05

0.1 C

1024.1 hpa

93 %

0.0 km/h aus 117

4.8 km/h aus WSW

-0.9 C

0.0 C

0.1 C

0.0 C

0 W/m

0.00 mm

15:10

0.1 C

1024.1 hpa

93 %

0.0 km/h aus 117

3.2 km/h aus WSW

-0.9 C

0.0 C

0.1 C

0.0 C

0 W/m

0.00 mm

15:15

0.0 C

1024.0 hpa

93 %

0.0 km/h aus 117

3.2 km/h aus WSW

-1.0 C

-0.1 C

0.0 C

-0.1 C

0 W/m

0.00 mm

15:20

-0.1 C

1024.0 hpa

93 %

0.0 km/h aus 117

1.6 km/h aus WSW

-1.1 C

-0.1 C

-0.1 C

-0.1 C

0 W/m

0.00 mm

15:25

-0.1 C

1024.0 hpa

93 %

0.0 km/h aus 117

1.6 km/h aus WSW

-1.1 C

-0.1 C

-0.1 C

-0.1 C

0 W/m

0.00 mm

15:30

-0.1 C

1024.0 hpa

93 %

1.6 km/h aus 117

3.2 km/h aus WSW

-1.1 C

-0.1 C

-0.1 C

-0.1 C

0 W/m

0.00 mm

15:35

-0.1 C

1024.0 hpa

93 %

0.0 km/h aus 115

3.2 km/h aus WSW

-1.1 C

-0.2 C

-0.1 C

-0.2 C

0 W/m

0.00 mm

15:40

-0.1 C

1024.0 hpa

93 %

0.0 km/h aus 116

3.2 km/h aus WSW

-1.1 C

-0.2 C

-0.1 C

-0.2 C

0 W/m

0.00 mm

15:45

-0.1 C

1024.1 hpa

93 %

0.0 km/h aus 115

3.2 km/h aus WSW

-1.1 C

-0.2 C

-0.1 C

-0.2 C

0 W/m

0.00 mm

15:50

-0.1 C

1024.1 hpa

93 %

0.0 km/h aus 117

3.2 km/h aus WSW

-1.1 C

-0.2 C

-0.1 C

-0.2 C

0 W/m

0.00 mm

15:55

-0.2 C

1024.1 hpa

93 %

0.0 km/h aus 116

1.6 km/h aus WSW

-1.2 C

-0.2 C

-0.2 C

-0.2 C

0 W/m

0.00 mm

16:00

-0.2 C

1024.3 hpa

93 %

0.0 km/h aus 116

1.6 km/h aus WSW

-1.2 C

-0.2 C

-0.2 C

-0.2 C

0 W/m

0.00 mm

16:05

-0.2 C

1024.3 hpa

93 %

0.0 km/h aus 117

1.6 km/h aus WSW

-1.2 C

-0.2 C

-0.2 C

-0.2 C

0 W/m

0.00 mm

16:10

-0.2 C

1024.3 hpa

93 %

0.0 km/h aus 115

3.2 km/h aus WSW

-1.2 C

-0.3 C

-0.2 C

-0.3 C

0 W/m

0.00 mm

16:15

-0.2 C

1024.3 hpa

92 %

0.0 km/h aus 116

1.6 km/h aus WSW

-1.4 C

-0.3 C

-0.2 C

-0.3 C

0 W/m

0.00 mm

16:20

-0.3 C

1024.3 hpa

93 %

0.0 km/h aus 116

1.6 km/h aus WSW

-1.3 C

-0.3 C

-0.3 C

-0.3 C

0 W/m

0.00 mm

16:25

-0.3 C

1024.3 hpa

93 %

0.0 km/h aus 116

3.2 km/h aus WSW

-1.3 C

-0.4 C

-0.3 C

-0.4 C

0 W/m

0.00 mm

16:30

-0.4 C

1024.4 hpa

93 %

0.0 km/h aus 116

0.0 km/h aus ---

-1.4 C

-0.4 C

-0.4 C

-0.4 C

0 W/m

0.00 mm

16:35

-0.4 C

1024.4 hpa

93 %

0.0 km/h aus 117

0.0 km/h aus ---

-1.4 C

-0.5 C

-0.4 C

-0.5 C

0 W/m

0.00 mm

16:40

-0.5 C

1024.4 hpa

92 %

0.0 km/h aus 116

1.6 km/h aus WSW

-1.6 C

-0.6 C

-0.5 C

-0.6 C

0 W/m

0.00 mm

16:45

-0.6 C

1024.5 hpa

92 %

0.0 km/h aus 117

3.2 km/h aus WSW

-1.7 C

-0.7 C

-0.6 C

-0.7 C

0 W/m

0.00 mm

16:50

-0.6 C

1024.5 hpa

92 %

0.0 km/h aus 117

3.2 km/h aus WSW

-1.7 C

-0.7 C

-0.6 C

-0.7 C

0 W/m

0.00 mm

16:55

-0.7 C

1024.5 hpa

92 %

0.0 km/h aus 117

3.2 km/h aus WSW

-1.8 C

-0.8 C

-0.7 C

-0.8 C

0 W/m

0.00 mm

17:00

-0.7 C

1024.6 hpa

92 %

0.0 km/h aus 116

3.2 km/h aus WSW

-1.9 C

-0.8 C

-0.7 C

-0.8 C

0 W/m

0.00 mm

17:05

-0.8 C

1024.6 hpa

92 %

0.0 km/h aus 116

0.0 km/h aus ---

-1.9 C

-0.9 C

-0.8 C

-0.9 C

0 W/m

0.00 mm

17:10

-0.8 C

1024.6 hpa

92 %

0.0 km/h aus 117

3.2 km/h aus WSW

-2.0 C

-0.9 C

-0.8 C

-0.9 C

0 W/m

0.00 mm

17:15

-0.9 C

1024.6 hpa

92 %

0.0 km/h aus 116

3.2 km/h aus WSW

-2.0 C

-1.0 C

-0.9 C

-1.0 C

0 W/m

0.00 mm

17:20

-0.9 C

1024.6 hpa

92 %

0.0 km/h aus 116

3.2 km/h aus WSW

-2.1 C

-1.1 C

-0.9 C

-1.1 C

0 W/m

0.00 mm

17:25

-0.9 C

1024.6 hpa

92 %

0.0 km/h aus 116

1.6 km/h aus WSW

-2.1 C

-1.1 C

-0.9 C

-1.1 C

0 W/m

0.00 mm

17:30

-1.0 C

1024.6 hpa

92 %

0.0 km/h aus 116

1.6 km/h aus WSW

-2.1 C

-1.1 C

-1.0 C

-1.1 C

0 W/m

0.00 mm

17:35

-1.1 C

1024.6 hpa

92 %

0.0 km/h aus 117

0.0 km/h aus ---

-2.2 C

-1.2 C

-1.1 C

-1.2 C

0 W/m

0.00 mm

17:40

-1.1 C

1024.6 hpa

92 %

0.0 km/h aus 117

1.6 km/h aus WSW

-2.2 C

-1.2 C

-1.1 C

-1.2 C

0 W/m

0.00 mm

17:45

-1.1 C

1024.7 hpa

92 %

0.0 km/h aus 115

1.6 km/h aus WSW

-2.2 C

-1.2 C

-1.1 C

-1.2 C

0 W/m

0.00 mm

17:50

-1.2 C

1024.7 hpa

92 %

0.0 km/h aus 117

3.2 km/h aus WSW

-2.3 C

-1.3 C

-1.2 C

-1.3 C

0 W/m

0.00 mm

17:55

-1.2 C

1024.7 hpa

92 %

0.0 km/h aus 115

1.6 km/h aus WSW

-2.4 C

-1.3 C

-1.2 C

-1.3 C

0 W/m

0.00 mm

18:00

-1.3 C

1024.7 hpa

92 %

0.0 km/h aus 116

0.0 km/h aus ---

-2.4 C

-1.4 C

-1.3 C

-1.4 C

0 W/m

0.00 mm

18:05

-1.3 C

1024.7 hpa

92 %

0.0 km/h aus 116

1.6 km/h aus WSW

-2.5 C

-1.4 C

-1.3 C

-1.4 C

0 W/m

0.00 mm

18:10

-1.4 C

1024.7 hpa

92 %

0.0 km/h aus 116

0.0 km/h aus ---

-2.5 C

-1.5 C

-1.4 C

-1.5 C

0 W/m

0.00 mm

18:15

-1.4 C

1024.6 hpa

92 %

0.0 km/h aus 117

1.6 km/h aus WSW

-2.6 C

-1.6 C

-1.4 C

-1.6 C

0 W/m

0.00 mm

18:20

-1.5 C

1024.6 hpa

92 %

0.0 km/h aus 117

3.2 km/h aus WSW

-2.6 C

-1.6 C

-1.5 C

-1.6 C

0 W/m

0.00 mm

18:25

-1.6 C

1024.6 hpa

92 %

0.0 km/h aus 116

3.2 km/h aus WSW

-2.7 C

-1.7 C

-1.6 C

-1.7 C

0 W/m

0.00 mm

18:30

-1.6 C

1024.7 hpa

92 %

0.0 km/h aus 117

3.2 km/h aus WSW

-2.7 C

-1.7 C

-1.6 C

-1.7 C

0 W/m

0.00 mm

18:35

-1.7 C

1024.7 hpa

92 %

0.0 km/h aus 117

1.6 km/h aus WSW

-2.8 C

-1.8 C

-1.7 C

-1.8 C

0 W/m

0.00 mm

18:40

-1.7 C

1024.7 hpa

92 %

0.0 km/h aus 117

0.0 km/h aus ---

-2.9 C

-1.8 C

-1.7 C

-1.8 C

0 W/m

0.00 mm

18:45

-1.8 C

1024.6 hpa

92 %

0.0 km/h aus 117

0.0 km/h aus ---

-2.9 C

-1.9 C

-1.8 C

-1.9 C

0 W/m

0.00 mm

18:50

-1.8 C

1024.6 hpa

92 %

0.0 km/h aus 115

1.6 km/h aus WSW

-2.9 C

-1.9 C

-1.8 C

-1.9 C

0 W/m

0.00 mm

18:55

-1.8 C

1024.6 hpa

92 %

0.0 km/h aus 115

1.6 km/h aus WSW

-2.9 C

-1.9 C

-1.8 C

-1.9 C

0 W/m

0.00 mm

19:00

-1.8 C

1024.6 hpa

92 %

0.0 km/h aus 116

1.6 km/h aus WSW

-3.0 C

-1.9 C

-1.8 C

-1.9 C

0 W/m

0.00 mm

19:05

-1.9 C

1024.6 hpa

92 %

0.0 km/h aus 116

1.6 km/h aus WSW

-3.0 C

-2.0 C

-1.9 C

-2.0 C

0 W/m

0.00 mm

19:10

-1.9 C

1024.6 hpa

92 %

0.0 km/h aus 117

1.6 km/h aus WSW

-3.0 C

-2.0 C

-1.9 C

-2.0 C

0 W/m

0.00 mm

19:15

-1.9 C

1024.6 hpa

92 %

0.0 km/h aus 116

1.6 km/h aus WSW

-3.1 C

-2.1 C

-1.9 C

-2.1 C

0 W/m

0.00 mm

19:20

-2.0 C

1024.6 hpa

93 %

0.0 km/h aus 117

0.0 km/h aus ---

-3.0 C

-2.1 C

-2.0 C

-2.1 C

0 W/m

0.00 mm

19:25

-2.0 C

1024.6 hpa

93 %

0.0 km/h aus 117

0.0 km/h aus ---

-3.0 C

-2.1 C

-2.0 C

-2.1 C

0 W/m

0.00 mm

19:30

-2.1 C

1024.7 hpa

93 %

0.0 km/h aus 117

0.0 km/h aus ---

-3.0 C

-2.1 C

-2.1 C

-2.1 C

0 W/m

0.00 mm

19:35

-2.1 C

1024.7 hpa

93 %

0.0 km/h aus 116

0.0 km/h aus ---

-3.0 C

-2.1 C

-2.1 C

-2.1 C

0 W/m

0.00 mm

19:40

-2.1 C

1024.7 hpa

93 %

0.0 km/h aus 117

0.0 km/h aus ---

-3.0 C

-2.1 C

-2.1 C

-2.1 C

0 W/m

0.00 mm

19:45

-2.1 C

1024.7 hpa

92 %

0.0 km/h aus 117

0.0 km/h aus ---

-3.2 C

-2.2 C

-2.1 C

-2.2 C

0 W/m

0.00 mm

19:50

-2.1 C

1024.7 hpa

92 %

0.0 km/h aus 117

1.6 km/h aus WSW

-3.2 C

-2.2 C

-2.1 C

-2.2 C

0 W/m

0.00 mm

19:55

-2.1 C

1024.7 hpa

93 %

0.0 km/h aus 117

0.0 km/h aus ---

-3.0 C

-2.1 C

-2.1 C

-2.1 C

0 W/m

0.00 mm

20:00

-2.1 C

1024.8 hpa

93 %

0.0 km/h aus 117

0.0 km/h aus ---

-3.0 C

-2.1 C

-2.1 C

-2.1 C

0 W/m

0.00 mm

20:05

-2.1 C

1024.8 hpa

92 %

0.0 km/h aus 116

1.6 km/h aus WSW

-3.2 C

-2.2 C

-2.1 C

-2.2 C

0 W/m

0.00 mm

20:10

-2.1 C

1024.8 hpa

93 %

0.0 km/h aus 117

0.0 km/h aus ---

-3.1 C

-2.2 C

-2.1 C

-2.2 C

0 W/m

0.00 mm

20:15

-2.2 C

1024.7 hpa

93 %

0.0 km/h aus 116

1.6 km/h aus WSW

-3.1 C

-2.2 C

-2.2 C

-2.2 C

0 W/m

0.00 mm

20:20

-2.2 C

1024.7 hpa

93 %

0.0 km/h aus 117

0.0 km/h aus ---

-3.1 C

-2.2 C

-2.2 C

-2.2 C

0 W/m

0.00 mm

20:25

-2.2 C

1024.7 hpa

93 %

0.0 km/h aus 117

0.0 km/h aus ---

-3.1 C

-2.2 C

-2.2 C

-2.2 C

0 W/m

0.00 mm

20:30

-2.2 C

1024.9 hpa

93 %

0.0 km/h aus 116

4.8 km/h aus WSW

-3.1 C

-2.2 C

-2.2 C

-2.2 C

0 W/m

0.00 mm

20:35

-2.2 C

1024.9 hpa

93 %

1.6 km/h aus 116

4.8 km/h aus WSW

-3.1 C

-2.2 C

-2.2 C

-2.2 C

0 W/m

0.00 mm

20:40

-2.2 C

1024.9 hpa

93 %

0.0 km/h aus 116

0.0 km/h aus ---

-3.1 C

-2.2 C

-2.2 C

-2.2 C

0 W/m

0.00 mm

20:45

-2.2 C

1025.1 hpa

93 %

0.0 km/h aus 117

1.6 km/h aus WSW

-3.1 C

-2.2 C

-2.2 C

-2.2 C

0 W/m

0.00 mm

20:50

-2.2 C

1025.1 hpa

93 %

0.0 km/h aus 116

1.6 km/h aus WSW

-3.1 C

-2.2 C

-2.2 C

-2.2 C

0 W/m

0.00 mm

20:55

-2.2 C

1025.1 hpa

93 %

0.0 km/h aus 117

0.0 km/h aus ---

-3.2 C

-2.3 C

-2.2 C

-2.3 C

0 W/m

0.00 mm

21:00

-2.2 C

1025.1 hpa

93 %

0.0 km/h aus 116

0.0 km/h aus ---

-3.2 C

-2.3 C

-2.2 C

-2.3 C

0 W/m

0.00 mm

21:05

-2.2 C

1025.1 hpa

93 %

0.0 km/h aus 116

0.0 km/h aus ---

-3.2 C

-2.3 C

-2.2 C

-2.3 C

0 W/m

0.00 mm

21:10

-2.3 C

1025.1 hpa

93 %

0.0 km/h aus 117

1.6 km/h aus WSW

-3.3 C

-2.3 C

-2.3 C

-2.3 C

0 W/m

0.00 mm

21:15

-2.3 C

1025.2 hpa

93 %

0.0 km/h aus 116

0.0 km/h aus ---

-3.3 C

-2.3 C

-2.3 C

-2.3 C

0 W/m

0.00 mm

21:20

-2.3 C

1025.2 hpa

93 %

0.0 km/h aus 117

3.2 km/h aus WSW

-3.3 C

-2.3 C

-2.3 C

-2.3 C

0 W/m

0.00 mm

21:25

-2.3 C

1025.2 hpa

93 %

0.0 km/h aus 116

1.6 km/h aus WSW

-3.3 C

-2.3 C

-2.3 C

-2.3 C

0 W/m

0.00 mm

21:30

-2.3 C

1025.2 hpa

93 %

0.0 km/h aus 117

1.6 km/h aus WSW

-3.3 C

-2.4 C

-2.3 C

-2.4 C

0 W/m

0.00 mm

21:35

-2.3 C

1025.2 hpa

93 %

0.0 km/h aus 117

0.0 km/h aus ---

-3.3 C

-2.4 C

-2.3 C

-2.4 C

0 W/m

0.00 mm

21:40

-2.3 C

1025.2 hpa

93 %

0.0 km/h aus 117

0.0 km/h aus ---

-3.3 C

-2.4 C

-2.3 C

-2.4 C

0 W/m

0.00 mm

21:45

-2.4 C

1025.3 hpa

93 %

0.0 km/h aus 117

0.0 km/h aus ---

-3.4 C

-2.4 C

-2.4 C

-2.4 C

0 W/m

0.00 mm

21:50

-2.4 C

1025.3 hpa

93 %

0.0 km/h aus 117

0.0 km/h aus ---

-3.4 C

-2.4 C

-2.4 C

-2.4 C

0 W/m

0.00 mm

21:55

-2.4 C

1025.3 hpa

93 %

0.0 km/h aus 116

3.2 km/h aus WSW

-3.4 C

-2.5 C

-2.4 C

-2.5 C

0 W/m

0.00 mm

22:00

-2.4 C

1025.5 hpa

93 %

0.0 km/h aus 117

1.6 km/h aus WSW

-3.4 C

-2.5 C

-2.4 C

-2.5 C

0 W/m

0.00 mm

22:05

-2.4 C

1025.5 hpa

93 %

0.0 km/h aus 116

1.6 km/h aus WSW

-3.4 C

-2.5 C

-2.4 C

-2.5 C

0 W/m

0.00 mm

22:10

-2.4 C

1025.5 hpa

93 %

0.0 km/h aus 116

1.6 km/h aus WSW

-3.4 C

-2.5 C

-2.4 C

-2.5 C

0 W/m

0.00 mm

22:15

-2.4 C

1025.6 hpa

93 %

0.0 km/h aus 115

3.2 km/h aus WSW

-3.4 C

-2.5 C

-2.4 C

-2.5 C

0 W/m

0.00 mm

22:20

-2.5 C

1025.6 hpa

93 %

1.6 km/h aus 116

4.8 km/h aus WSW

-3.5 C

-2.6 C

-2.5 C

-2.6 C

0 W/m

0.00 mm

22:25

-2.5 C

1025.6 hpa

93 %

0.0 km/h aus 118

0.0 km/h aus ---

-3.5 C

-2.6 C

-2.5 C

-2.6 C

0 W/m

0.00 mm

22:30

-2.6 C

1025.6 hpa

93 %

0.0 km/h aus 117

3.2 km/h aus WSW

-3.5 C

-2.6 C

-2.6 C

-2.6 C

0 W/m

0.00 mm

22:35

-2.6 C

1025.6 hpa

93 %

1.6 km/h aus 116

3.2 km/h aus WSW

-3.5 C

-2.6 C

-2.6 C

-2.6 C

0 W/m

0.00 mm

22:40

-2.6 C

1025.6 hpa

93 %

0.0 km/h aus 117

3.2 km/h aus WSW

-3.6 C

-2.7 C

-2.6 C

-2.7 C

0 W/m

0.00 mm

22:45

-2.6 C

1025.6 hpa

93 %

0.0 km/h aus 117

3.2 km/h aus WSW

-3.6 C

-2.7 C

-2.6 C

-2.7 C

0 W/m

0.00 mm

22:50

-2.6 C

1025.6 hpa

93 %

0.0 km/h aus 116

3.2 km/h aus WSW

-3.6 C

-2.7 C

-2.6 C

-2.7 C

0 W/m

0.00 mm

22:55

-2.6 C

1025.6 hpa

93 %

0.0 km/h aus 116

1.6 km/h aus WSW

-3.6 C

-2.7 C

-2.6 C

-2.7 C

0 W/m

0.00 mm

23:00

-2.7 C

1025.6 hpa

93 %

0.0 km/h aus 117

1.6 km/h aus WSW

-3.6 C

-2.7 C

-2.7 C

-2.7 C

0 W/m

0.00 mm

23:05

-2.7 C

1025.6 hpa

93 %

0.0 km/h aus 116

1.6 km/h aus WSW

-3.6 C

-2.7 C

-2.7 C

-2.7 C

0 W/m

0.00 mm

23:10

-2.7 C

1025.6 hpa

93 %

0.0 km/h aus 115

3.2 km/h aus WSW

-3.7 C

-2.8 C

-2.7 C

-2.8 C

0 W/m

0.00 mm

23:15

-2.7 C

1025.4 hpa

93 %

0.0 km/h aus 116

1.6 km/h aus WSW

-3.7 C

-2.8 C

-2.7 C

-2.8 C

0 W/m

0.00 mm

23:20

-2.7 C

1025.4 hpa

93 %

0.0 km/h aus 117

1.6 km/h aus WSW

-3.7 C

-2.8 C

-2.7 C

-2.8 C

0 W/m

0.00 mm

23:25

-2.8 C

1025.4 hpa

93 %

0.0 km/h aus 116

0.0 km/h aus ---

-3.8 C

-2.8 C

-2.8 C

-2.8 C

0 W/m

0.00 mm

23:30

-2.8 C

1025.5 hpa

93 %

0.0 km/h aus 118

0.0 km/h aus ---

-3.8 C

-2.9 C

-2.8 C

-2.9 C

0 W/m

0.00 mm

23:35

-2.8 C

1025.5 hpa

93 %

0.0 km/h aus 117

0.0 km/h aus ---

-3.8 C

-2.9 C

-2.8 C

-2.9 C

0 W/m

0.00 mm

23:40

-2.9 C

1025.5 hpa

93 %

0.0 km/h aus 115

1.6 km/h aus WSW

-3.9 C

-2.9 C

-2.9 C

-2.9 C

0 W/m

0.00 mm

23:45

-2.9 C

1025.2 hpa

93 %

0.0 km/h aus 116

1.6 km/h aus WSW

-3.9 C

-3.0 C

-2.9 C

-3.0 C

0 W/m

0.00 mm

23:50

-3.0 C

1025.2 hpa

93 %

0.0 km/h aus 117

0.0 km/h aus ---

-4.0 C

-3.1 C

-3.0 C

-3.1 C

0 W/m

0.00 mm

23:55

-3.1 C

1025.2 hpa

93 %

0.0 km/h aus 116

0.0 km/h aus ---

-4.0 C

-3.1 C

-3.1 C

-3.1 C

0 W/m

0.00 mm